Location: Llanfihangel-Ystrad
(52.1833°N, 4.1667°W)
Time: 19:36:48
(UTC+00:00)

ATLAS 2AS CENTAUR R/B - Pass Details

Date: 17 February 2020
Orbit: 929 x 1283 km, 63.7° (Epoch: 26 March)

Event Time Altitude Azimuth Distance (km) Brightness Sun altitude
Exits shadow 02:23:01 36° 20° (NNE) 1,888 4.2 -44.1°
Drops below altitude 10° 02:27:55 10° 48° (NE) 3,201 5.8 -43.6°
Sets 02:30:48 0° 55° (NE) 4,127 6.5 -43.3°
